Location: Ammerl�gen
(47.2167°N, 9.6000°E)
Time: 03:55:53
(UTC+00:00)

NOAA 19 - Pass Details

Date: 02 December 2021
Orbit: 841 x 860 km, 99.2° (Epoch: 16 January)

Event Time Altitude Azimuth Distance (km) Brightness Sun altitude
Rises 18:57:28 0° 195° (SSW) 3,383 8.5 -33.9°
Reaches altitude 10° 19:00:09 10° 207° (SSW) 2,454 7.8 -34.3°
Maximum altitude 19:04:46 28° 266° (W) 1,535 7.0 -35.1°
Drops below altitude 10° 19:09:26 10° 324° (NW) 2,474 8.0 -35.9°
Sets 19:12:10 0° 336° (NNW) 3,417 8.7 -36.4°
